This is the latest recevied weather packets stored in our database for station/object K7PMV-13. If no packets are shown the sender has not sent any weather packets the latest 10 day(s).
| Time | Temp. | Humidity | Pressure | Rain* | Wind** | Luminosity | Snow |
|---|---|---|---|---|---|---|---|
| 1777073206 | 31.67° C | 15% | 1002.9 hPa | 0 mm | - | 489 W/m² | - |
| 1777072903 | 31.67° C | 15% | 1003 hPa | 0 mm | - | 508 W/m² | - |
| 1777072600 | 31.67° C | 16% | 1003 hPa | 0 mm | - | 524 W/m² | - |
| 1777072298 | 31.67° C | 16% | 1003.1 hPa | 0 mm | - | 536 W/m² | - |
| 1777071995 | 32.22° C | 17% | 1003.1 hPa | 0 mm | - | 557 W/m² | - |
| 1777071693 | 31.67° C | 15% | 1003.2 hPa | 0 mm | - | 571 W/m² | - |
| 1777071390 | 31.67° C | 16% | 1003.2 hPa | 0 mm | - | 591 W/m² | - |
| 1777071087 | 31.67° C | 16% | 1003.2 hPa | 0 mm | - | 606 W/m² | - |
| 1777070784 | 31.67° C | 16% | 1003.2 hPa | 0 mm | - | 622 W/m² | - |
| 1777070481 | 31.67° C | 16% | 1003.3 hPa | 0 mm | - | 640 W/m² | - |
| 1777070178 | 32.22° C | 15% | 1003.3 hPa | 0 mm | - | 652 W/m² | - |
| 1777069876 | 32.22° C | 17% | 1003.4 hPa | 0 mm | - | 668 W/m² | - |
| 1777069574 | 32.22° C | 16% | 1003.5 hPa | 0 mm | - | 686 W/m² | - |
| 1777069271 | 32.22° C | 16% | 1003.6 hPa | 0 mm | - | 705 W/m² | - |
| 1777068968 | 32.22° C | 15% | 1003.6 hPa | 0 mm | - | 636 W/m² | - |
| 1777068665 | 31.67° C | 15% | 1003.8 hPa | 0 mm | - | 731 W/m² | - |
| 1777068363 | 32.22° C | 16% | 1003.9 hPa | 0 mm | - | 742 W/m² | - |
| 1777068060 | 32.22° C | 15% | 1004.1 hPa | 0 mm | - | 763 W/m² | - |
| 1777067693 | 31.67° C | 16% | 1004.2 hPa | 0 mm | - | 784 W/m² | - |
| 1777067390 | 31.67° C | 15% | 1004.5 hPa | 0 mm | - | 796 W/m² | - |
| 1777067087 | 31.67° C | 15% | 1004.5 hPa | 0 mm | - | 766 W/m² | - |
| 1777066785 | 31.67° C | 15% | 1004.6 hPa | 0 mm | - | 816 W/m² | - |
| 1777066483 | 32.22° C | 16% | 1004.7 hPa | 0 mm | - | 802 W/m² | - |
| 1777066180 | 32.22° C | 16% | 1004.6 hPa | 0 mm | - | 830 W/m² | - |
| 1777065877 | 32.22° C | 16% | 1004.7 hPa | 0 mm | - | 838 W/m² | - |
* Rain latest hour (hover to see other rain measurements)
** Current wind speed in m/s (hover to see current wind gust speed)